Volver al catálogo

STARLINK-37666

ActivoComunicacionesSSO
NORAD 69046·PAYLOAD·🇺🇸 United States

Lanzado May 6, 2026 desde Vandenberg Space Force Base

Loading…

Próximos Pases (próximas 24 horas)

TLE

ActualizadoSource: CelesTrak SupGP

Época: Sep 14, 2026, 23:33 UTC

1 69046C 26101X   26257.98173611  .00091341  00000+0  28356-2 0  2573
2 69046  97.2848 111.6155 0001721  92.6708  54.4807 15.33391030    15

Sigue STARLINK-37666 en tiempo real con AllMySat

Download on the App Store